Home > Time Zones > World Clock > Weather > Spain > Cadiz > Past weeks

Flag for Spain Weather past 2 weeks in Cadiz, Cádiz, Spain

Now
77 °F

Clear.


Feels Like: 79 °F
Forecast: 72 / 82 °F
Wind: 3 mph from Southwest

Location: Rota Airport

Current Time: Jul 30, 2015 at 12:23:43 AM

Latest Report: Jul 29, 2015 at 11:00 PM


Visibility: 10 mi

Pressure: 29.86 "Hg

Humidity: 79%

Dew point: 70 °F

Location of CadizLocation

Historic Weather in Cadiz — Graph

°F

Cadiz temperature yesterday

Maximum temperature yesterday: 84 °F (at 12:00 PM)
Minimum temperature yesterday: 73 °F (at 8:00 AM)
Average temperature yesterday: 78 °F

Past Weeks' High & Low Weather Summary

 TemperatureHumidityPressure
High97 °F (Jul 17, 1:00 PM)94% (Jul 18, 8:00 AM)30.07 "Hg (Jul 18, 8:00 AM)
Low68 °F (Jul 24, 7:00 AM)26% (Jul 17, 7:00 PM)29.83 "Hg (Jul 28, 7:00 PM)
Average79 °F68%29.95 "Hg
* Reported Jul 14 11:00 PM — Jul 29 11:00 PM, Cadiz, Weather by CustomWeather, © 2015

Note: Actual official high and low records may vary slightly from our data, if they occured in-between our weather recording intervals... More about our weather records

Advertising

Cadiz weather history for previous 24 hours

 ConditionsComfort  
Time TempWeatherWind HumidityBarometerVisibility
11:00 PM
Wed, Jul 29
77 °FClear.3 mph79%29.86 "Hg10 mi
10:00 PM77 °FSunny.8 mph79%29.83 "Hg10 mi
9:00 PM79 °FSunny.15 mph74%29.83 "Hg10 mi
8:00 PM81 °FSunny.15 mph62%29.83 "Hg10 mi
7:00 PM81 °FSunny.15 mph62%29.83 "Hg10 mi
6:00 PM81 °FSunny.13 mph62%29.86 "Hg10 mi
5:00 PM82 °FPassing clouds.10 mph62%29.86 "HgN/A
4:00 PM82 °FPassing clouds.9 mph51%29.89 "HgN/A
3:00 PM82 °FSunny.9 mph58%29.89 "Hg10 mi
2:00 PM82 °FPassing clouds.9 mph58%29.92 "HgN/A
1:00 PM82 °FPassing clouds.5 mph62%29.92 "HgN/A
12:00 PM84 °FPassing clouds.6 mph55%29.92 "HgN/A
11:00 AM82 °FSunny.3 mph74%29.89 "Hg10 mi
10:00 AM79 °FScattered clouds.No wind65%29.89 "HgN/A
9:00 AM77 °FClear.No wind83%29.89 "Hg5 mi
8:00 AM73 °FClear.No wind89%29.89 "Hg5 mi
7:00 AM75 °FPassing clouds.3 mph89%29.86 "HgN/A
6:00 AM75 °FPassing clouds.6 mph94%29.86 "HgN/A
5:00 AM75 °FPassing clouds.6 mph89%29.86 "HgN/A
4:00 AM75 °FClear.3 mph89%29.86 "Hg10 mi
3:00 AM75 °FClear.6 mph89%29.89 "Hg10 mi
2:00 AM75 °FClear.6 mph89%29.89 "Hg10 mi
1:00 AM75 °FPassing clouds.6 mph83%29.89 "HgN/A
12:00 AM75 °FPassing clouds.3 mph78%29.89 "HgN/A
Weather by CustomWeather, © 2015

See weather overviewHow to use our weather pages